Date,TemperatureHighF,TemperatureAvgF,TemperatureLowF,DewpointHighF,DewpointAvgF,DewpointLowF,HumidityHigh,HumidityAvg,HumidityLow,PressureMaxIn,PressureMinIn,WindSpeedMaxMPH,WindSpeedAvgMPH,GustSpeedMaxMPH,PrecipitationSumIn
2013-3-1,43.5,37.3,31.9,34.0,30.3,26.0,92,76,60,29.27,29.10,4,0,9,0.01
2013-3-2,38.0,34.1,29.4,27.0,25.8,24.0,90,72,62,29.27,29.19,3,0,7,0.00
2013-3-3,39.5,31.3,27.2,26.0,22.1,19.0,87,69,52,29.24,29.16,5,1,16,0.00
2013-3-4,39.5,31.5,26.3,24.0,20.3,17.0,76,64,51,29.38,29.23,6,2,14,0.00
2013-3-5,45.6,36.6,28.4,28.0,25.0,21.0,77,64,49,29.53,29.38,13,1,13,0.00
2013-3-6,39.5,37.2,34.8,36.0,30.6,27.0,90,77,67,29.50,29.39,13,5,21,0.02
2013-3-7,37.3,33.6,31.1,33.0,29.4,26.0,94,85,72,29.57,29.43,12,3,18,0.12
2013-3-8,37.4,33.0,29.2,31.0,28.5,25.0,93,84,68,29.69,29.49,11,2,15,0.46
2013-3-9,48.5,39.8,30.9,27.0,23.2,19.0,76,54,33,29.82,29.68,7,2,12,0.00
2013-3-10,46.5,39.1,31.0,35.0,31.6,22.0,90,75,56,29.88,29.80,4,1,8,0.00
2013-3-11,50.6,42.7,35.3,46.0,39.2,33.0,94,87,73,29.82,29.61,7,1,9,0.00
2013-3-12,53.2,49.0,41.3,52.0,47.0,38.0,95,92,85,29.60,29.20,9,2,16,1.22
2013-3-13,49.2,42.5,36.0,39.0,31.6,26.0,90,67,44,29.38,29.29,6,1,9,0.00
2013-3-14,36.3,31.9,26.8,28.0,16.0,8.0,78,54,33,29.42,29.34,9,2,14,0.00
2013-3-15,40.5,34.7,26.9,30.0,22.2,12.0,71,61,51,29.44,29.22,5,1,10,0.00
2013-3-16,36.2,32.5,30.1,29.0,23.3,19.0,90,70,52,29.38,29.28,3,0,7,0.02
2013-3-17,37.0,31.8,26.9,27.0,20.6,13.0,91,65,39,29.71,29.42,4,1,7,0.00
2013-3-18,32.5,27.9,23.0,25.0,12.5,7.0,88,53,42,29.91,29.68,7,2,14,0.01
2013-3-19,36.6,33.4,31.6,33.0,31.4,27.0,95,92,79,29.50,29.22,13,1,17,0.44
2013-3-20,41.1,34.4,26.7,26.0,21.6,20.0,79,61,45,29.36,29.29,7,0,9,0.00
2013-3-21,36.2,32.1,29.3,27.0,21.2,15.0,85,65,43,29.34,29.14,5,0,7,0.00
2013-3-22,39.1,32.7,26.7,24.0,19.1,13.0,68,58,49,29.37,29.21,7,1,9,0.00
2013-3-23,43.6,36.8,30.7,25.0,21.9,19.0,69,56,43,29.39,29.30,8,2,15,0.00
2013-3-24,44.0,36.5,28.6,26.0,23.2,20.0,74,60,45,29.44,29.23,4,0,8,0.00
2013-3-25,41.1,36.9,33.5,34.0,27.9,24.0,89,71,53,29.22,28.97,9,2,14,0.00
2013-3-26,50.4,41.8,35.3,34.0,28.8,26.0,74,61,43,29.30,29.12,4,1,11,0.00
2013-3-27,52.3,41.6,32.3,31.0,26.5,23.0,69,56,37,29.46,29.36,4,1,9,0.00
2013-3-28,47.5,42.2,34.6,34.0,30.8,28.0,78,65,54,29.60,29.45,7,1,9,0.00
2013-3-29,54.4,44.1,37.1,32.0,29.4,27.0,70,57,38,29.63,29.55,4,1,9,0.00
2013-3-30,56.7,45.9,35.3,34.0,26.8,20.0,79,51,27,29.66,29.57,4,0,9,0.00
2013-3-31,53.9,45.9,39.4,42.0,30.7,19.0,94,58,38,29.64,29.18,6,1,12,0.13